TimeCST,TemperatureF,Dew PointF,Humidity,Sea Level PressureIn,VisibilityMPH,Wind Direction,Wind SpeedMPH,Gust SpeedMPH,PrecipitationIn,Events,Conditions,WindDirDegrees,DateUTC
1:53 AM,44.1,32.0,63,30.27,10.0,NW,9.2,-,N/A,,Clear,310,2012-11-23 07:53:00
2:53 AM,43.0,30.9,62,30.28,10.0,West,5.8,-,N/A,,Clear,270,2012-11-23 08:53:00
3:53 AM,42.1,28.9,60,30.27,10.0,WNW,13.8,17.3,N/A,,Clear,300,2012-11-23 09:53:00
4:53 AM,41.0,25.0,53,30.29,10.0,WNW,20.7,34.5,N/A,,Clear,300,2012-11-23 10:53:00
6:53 AM,32.0,17.1,54,30.39,10.0,NW,21.9,31.1,N/A,,Mostly Cloudy,310,2012-11-23 12:53:00
7:53 AM,30.9,14.0,50,30.43,10.0,NW,23.0,33.4,N/A,,Clear,320,2012-11-23 13:53:00
8:53 AM,32.0,15.1,50,30.45,10.0,NW,18.4,25.3,N/A,,Clear,310,2012-11-23 14:53:00
9:53 AM,33.1,15.1,48,30.48,10.0,NW,21.9,31.1,N/A,,Clear,310,2012-11-23 15:53:00
10:53 AM,35.1,17.1,48,30.49,10.0,NNW,13.8,24.2,N/A,,Clear,330,2012-11-23 16:53:00
11:53 AM,36.0,14.0,41,30.47,10.0,NW,13.8,24.2,N/A,,Clear,320,2012-11-23 17:53:00
12:53 PM,37.9,14.0,38,30.45,10.0,WNW,15.0,23.0,N/A,,Clear,300,2012-11-23 18:53:00
1:53 PM,39.0,14.0,36,30.44,10.0,NW,11.5,-,N/A,,Clear,310,2012-11-23 19:53:00
2:53 PM,37.9,12.0,35,30.44,10.0,NW,16.1,24.2,N/A,,Clear,310,2012-11-23 20:53:00
3:53 PM,37.9,12.0,35,30.44,10.0,NW,13.8,-,N/A,,Clear,310,2012-11-23 21:53:00
4:53 PM,35.1,10.9,37,30.45,10.0,NW,11.5,-,N/A,,Clear,310,2012-11-23 22:53:00
5:53 PM,34.0,10.0,37,30.45,10.0,NW,10.4,-,N/A,,Clear,320,2012-11-23 23:53:00
6:53 PM,33.1,10.0,38,30.46,10.0,NW,8.1,-,N/A,,Clear,320,2012-11-24 00:53:00
7:53 PM,30.9,10.0,42,30.47,10.0,NW,6.9,-,N/A,,Clear,320,2012-11-24 01:53:00
8:53 PM,30.0,10.0,43,30.47,10.0,NW,5.8,-,N/A,,Clear,320,2012-11-24 02:53:00
9:53 PM,28.9,10.0,45,30.46,10.0,NNW,5.8,-,N/A,,Clear,330,2012-11-24 03:53:00
10:53 PM,28.0,10.9,49,30.45,10.0,North,6.9,-,N/A,,Clear,350,2012-11-24 04:53:00
11:53 PM,27.0,10.9,51,30.44,10.0,North,3.5,-,N/A,,Clear,350,2012-11-24 05:53:00